TimeMDT,TemperatureF,Dew PointF,Humidity,Sea Level PressureIn,VisibilityMPH,Wind Direction,Wind SpeedMPH,Gust SpeedMPH,PrecipitationIn,Events,Conditions,WindDirDegrees,DateUTC
12:12 AM,57.2,55.4,94,30.01,10.0,Calm,Calm,-,0.02,Rain,Light Rain,0,2013-08-02 06:12:00
12:56 AM,57.9,55.9,93,29.86,10.0,SW,6.9,-,0.02,,Partly Cloudy,230,2013-08-02 06:56:00
1:56 AM,57.9,53.1,84,29.85,10.0,WSW,10.4,-,N/A,,Clear,240,2013-08-02 07:56:00
2:56 AM,55.9,54.0,93,29.87,10.0,North,4.6,-,N/A,,Scattered Clouds,350,2013-08-02 08:56:00
3:08 AM,55.4,53.6,94,29.99,10.0,NNW,5.8,-,N/A,,Mostly Cloudy,330,2013-08-02 09:08:00
3:34 AM,57.2,53.6,88,30.00,10.0,West,8.1,-,N/A,,Overcast,270,2013-08-02 09:34:00
3:56 AM,57.0,54.0,89,29.88,10.0,WNW,4.6,-,N/A,,Overcast,290,2013-08-02 09:56:00
4:08 AM,57.2,53.6,88,30.00,10.0,West,4.6,-,N/A,Thunderstorm,Overcast,260,2013-08-02 10:08:00
4:23 AM,57.2,53.6,88,30.01,10.0,West,4.6,-,N/A,,Overcast,260,2013-08-02 10:23:00
4:56 AM,57.0,54.0,89,29.90,10.0,South,3.5,-,N/A,Thunderstorm,Mostly Cloudy,180,2013-08-02 10:56:00
5:15 AM,57.2,53.6,88,30.00,10.0,South,4.6,-,N/A,,Overcast,180,2013-08-02 11:15:00
5:56 AM,55.9,53.1,90,29.94,10.0,SSW,3.5,-,N/A,,Scattered Clouds,200,2013-08-02 11:56:00
6:56 AM,53.1,52.0,96,29.95,5.0,Calm,Calm,-,N/A,,Clear,0,2013-08-02 12:56:00
7:56 AM,59.0,55.0,87,29.94,10.0,ENE,3.5,-,N/A,,Overcast,70,2013-08-02 13:56:00
8:56 AM,60.1,55.0,83,29.96,10.0,Calm,Calm,-,N/A,,Clear,0,2013-08-02 14:56:00
9:11 AM,60.8,55.4,82,30.04,10.0,Variable,3.5,-,N/A,,Partly Cloudy,0,2013-08-02 15:11:00
9:56 AM,62.1,55.0,78,29.97,10.0,Variable,5.8,-,N/A,,Scattered Clouds,0,2013-08-02 15:56:00
10:56 AM,66.0,54.0,65,29.96,10.0,NW,10.4,-,N/A,,Overcast,320,2013-08-02 16:56:00
11:56 AM,68.0,53.1,59,29.95,10.0,North,10.4,-,N/A,,Clear,360,2013-08-02 17:56:00
12:56 PM,71.1,52.0,51,29.94,10.0,North,5.8,-,N/A,,Clear,10,2013-08-02 18:56:00
1:56 PM,73.9,46.9,38,29.92,10.0,Variable,3.5,-,N/A,,Partly Cloudy,0,2013-08-02 19:56:00
2:56 PM,75.9,45.0,33,29.91,10.0,NNW,9.2,-,N/A,,Clear,330,2013-08-02 20:56:00
3:56 PM,79.0,41.0,26,29.90,10.0,North,8.1,-,N/A,,Clear,350,2013-08-02 21:56:00
4:56 PM,78.1,37.0,23,29.89,10.0,Variable,5.8,-,N/A,,Clear,0,2013-08-02 22:56:00
5:56 PM,79.0,39.9,25,29.89,10.0,NNE,6.9,-,N/A,,Clear,20,2013-08-02 23:56:00
6:56 PM,73.0,44.1,35,29.92,10.0,North,6.9,-,N/A,,Scattered Clouds,350,2013-08-03 00:56:00
7:56 PM,69.1,45.0,42,29.93,10.0,North,13.8,-,N/A,,Clear,350,2013-08-03 01:56:00
8:56 PM,66.0,44.1,45,29.96,10.0,NNW,13.8,21.9,N/A,,Clear,330,2013-08-03 02:56:00
9:56 PM,63.0,44.1,50,30.00,10.0,Calm,Calm,-,N/A,,Clear,0,2013-08-03 03:56:00
10:56 PM,63.0,45.0,52,30.02,10.0,SW,8.1,-,N/A,,Mostly Cloudy,230,2013-08-03 04:56:00
11:56 PM,60.1,45.0,57,30.03,10.0,SSW,4.6,-,N/A,,Mostly Cloudy,200,2013-08-03 05:56:00